Location: Bamobli
(6.6379°N, 10.9396°W)
Time: 13:18:02
(UTC+00:00)

Hubble Space Telescope - Visible Passes

Search period start: 28 February 2021 00:00
Search period end: 10 March 2021 00:00
Orbit: 536 x 539 km, 28.5° (Epoch: 28 February)

Date Brightness Start Highest point End Pass type
(mag) Time Alt. Az. Time Alt. Az. Time Alt. Az.
28 Feb 0.7 05:56:35 28° WNW 05:58:40 80° SSW 06:02:47 10° ESE visible
28 Feb 1.2 19:32:10 10° WSW 19:36:13 59° NNW 19:39:53 12° NE visible
01 Mar 0.9 05:46:43 41° W 05:47:48 55° SSW 05:51:51 10° SE visible
01 Mar 1.8 19:21:28 10° W 19:25:23 41° NNW 19:29:17 10° NE visible
02 Mar 1.4 05:36:52 38° SSW 05:36:56 38° SSW 05:40:48 10° SE visible
02 Mar 2.3 19:10:54 10° W 19:14:34 30° NNW 19:18:12 10° NE visible
03 Mar 2.3 05:27:01 25° S 05:27:01 25° S 05:29:37 10° SSE visible
04 Mar 3.1 05:17:09 15° S 05:17:09 15° S 05:18:17 10° SSE visible
